Home > Time Zones > World Clock > Weather > France > Lens > Past weeks

Flag for France Weather past 2 weeks in Lens, France

Now
55 °F

Clear.


Feels Like: 55 °F
Forecast: 54 / 79 °F
Wind: 1 mph from South

Location: Lille Airport

Current Time: Jul 31, 2014 at 4:08:54 AM

Latest Report: Jul 31, 2014 at 3:30 AM


Visibility: N/A

Pressure: 30.01 "Hg

Humidity: 88%

Dew point: 52 °F

Location of LensLocation

Historic Weather in Lens — Graph

°F

Lens temperature yesterday

Maximum temperature yesterday: 72 °F (at 1:00 PM)
Minimum temperature yesterday: 57 °F (at 5:00 AM)
Average temperature yesterday: 65 °F

Past Weeks' High & Low Weather Summary

 TemperatureHumidityPressure
High91 °F (Jul 18, 2:30 PM)100% (Jul 16, 4:30 AM)30.18 "Hg (Jul 16, 4:30 AM)
Low55 °F (Jul 16, 6:00 AM)35% (Jul 24, 5:00 PM)29.74 "Hg (Jul 19, 7:00 PM)
Average70 °F75%29.97 "Hg
* Reported Jul 16 3:00 AM — Jul 31 3:00 AM, Lens, Weather by CustomWeather, © 2014

Note: Actual official high and low records may vary slightly from our data, if they occured in-between our weather recording intervals... More about our weather records

Advertising

Lens weather history for previous 24 hours

 ConditionsComfort  
Time TempWeatherWind HumidityBarometerVisibility
3:00 AM
Jul 31
55 °FClear.No wind94%30.01 "HgN/A
2:30 AM57 °FClear.2 mph88%30.04 "HgN/A
2:00 AM57 °FClear.2 mph82%30.04 "Hg10 mi
12:00 AM59 °FClear.No wind82%30.01 "Hg10 mi
11:00 PM
Jul 30
61 °FClear.1 mph77%30.01 "Hg10 mi
10:00 PM64 °FSunny.5 mph68%30.01 "Hg10 mi
9:30 PM64 °FSunny.5 mph68%30.01 "Hg10 mi
9:00 PM66 °FSunny.6 mph64%30.01 "Hg10 mi
8:30 PM68 °FSunny.8 mph60%30.01 "Hg10 mi
8:00 PM68 °FSunny.9 mph60%29.98 "Hg10 mi
7:30 PM70 °FPassing clouds.9 mph57%29.98 "HgN/A
7:00 PM70 °FPassing clouds.9 mph57%29.98 "HgN/A
6:30 PM70 °FPassing clouds.9 mph60%29.98 "HgN/A
6:00 PM72 °FScattered clouds.10 mph57%29.98 "HgN/A
5:30 PM70 °FScattered clouds.12 mph60%29.98 "HgN/A
5:00 PM72 °FScattered clouds.9 mph61%29.98 "HgN/A
4:30 PM72 °FScattered clouds.10 mph61%29.98 "HgN/A
4:00 PM72 °FScattered clouds.9 mph61%29.98 "HgN/A
3:30 PM72 °FScattered clouds.10 mph61%29.98 "HgN/A
3:00 PM72 °FBroken clouds.10 mph61%29.98 "HgN/A
2:30 PM72 °FBroken clouds.12 mph61%29.98 "HgN/A
2:00 PM72 °FBroken clouds.10 mph61%29.98 "HgN/A
1:30 PM70 °FPartly sunny.12 mph69%29.98 "HgN/A
1:00 PM72 °FScattered clouds.9 mph69%29.98 "HgN/A
12:30 PM70 °FScattered clouds.7 mph78%29.98 "HgN/A
12:00 PM70 °FPartly sunny.8 mph73%29.98 "HgN/A
11:30 AM68 °FBroken clouds.7 mph78%29.98 "HgN/A
11:00 AM66 °FPartly sunny.6 mph88%29.95 "HgN/A
10:30 AM64 °FPartly sunny.8 mph94%29.95 "HgN/A
10:00 AM64 °FSunny.5 mph88%29.95 "Hg10 mi
9:30 AM63 °FClear.3 mph94%29.95 "Hg5 mi
9:00 AM61 °FFog.6 mph100%29.95 "Hg1 mi
8:30 AM59 °FFog.5 mph100%29.95 "Hg1 mi
8:00 AM59 °FFog.2 mph94%29.95 "Hg0 mi
7:30 AM57 °FFog.3 mph100%29.95 "Hg0 mi
7:00 AM57 °FFog.2 mph100%29.95 "Hg0 mi
6:30 AM59 °FFog.1 mph100%29.95 "Hg2 mi
6:00 AM57 °FFog.6 mph100%29.92 "Hg2 mi
5:30 AM57 °FFog.7 mph100%29.92 "Hg2 mi
5:00 AM57 °FFog.6 mph100%29.92 "Hg2 mi
4:30 AM59 °FClear.6 mph94%29.92 "Hg4 mi
4:00 AM59 °FClear.7 mph94%29.92 "Hg4 mi
Weather by CustomWeather, © 2014

See weather overviewHow to use our weather pages